#timestamp,LO_Frequency,Hit,StdDev 
1507968015.3,286046999.4,N
1507968035.1,286046999.2,N
1507968055.9,286046999.0,N
1507968075.7,286046997.8,N
1507968095.5,286046995.4,Y
1507968115.4,286046999.0,P
1507968135.2,286046998.2,P
1507968155.0,286046998.1,P
1507968156.0,286046998.1,Y
1507968175.8,286047000.2,P
1507968195.6,286047000.0,N
1507968215.5,286047002.3,P
1507968235.3,286047003.1,N
1507968255.1,286047003.4,N
1507968275.9,286047004.1,N
1507968295.7,286047003.7,N
1507968315.6,286047003.4,N
1507968335.4,286047004.1,N
1507968355.2,286047004.0,N
1507968375.1,286047003.9,N
1507968376.0,286047003.9,N
1507968395.8,286047002.0,N
1507968415.6,286047002.3,N
1507968435.5,286047002.2,N
1507968455.3,286047000.0,N
1507968475.1,286046999.7,N
1507968495.9,286047002.8,N
1507968515.7,286047002.1,N
1507968535.6,286046999.8,N
1507968555.4,286046999.7,N
1507968575.2,286047001.7,N
1507968595.1,286047003.7,N
1507968596.0,286047003.7,N
1507968615.8,286047003.2,N
1507968635.6,286047003.8,N
1507968655.5,286047003.6,N
1507968675.3,286047005.4,Y
1507968695.2,286047001.5,P
1507968715.9,286046998.5,P
1507968735.7,286046996.5,N
1507968755.6,286047000.9,N
1507968775.4,286047002.6,N
1507968795.2,286047000.9,N
1507968815.1,286047000.4,N
1507968816.0,286047000.4,N
1507968835.8,286047001.9,N
1507968855.7,286047001.3,N
1507968875.5,286047001.5,N
1507968895.3,286047004.1,N
1507968915.2,286047004.0,N
1507968935.0,286047002.7,N
1507968935.9,286047002.7,N
1507968955.8,286047001.1,N
1507968975.6,286046998.4,N
1507968995.4,286046997.1,N
1507969015.3,286046998.7,N
1507969035.1,286046996.6,N
1507969036.0,286046996.6,N
1507969055.8,286046998.4,N
1507969075.7,286047000.1,N
1507969095.5,286047001.5,N
1507969115.3,286047002.2,N
1507969135.2,286047001.0,N
1507969155.0,286047000.0,N
1507969155.9,286047000.0,N
1507969175.8,286047000.5,N
1507969195.6,286047000.4,N
1507969215.4,286047000.5,N
1507969265.3,286046999.1,E
1507969275.2,286046998.5,N
1507969295.1,286046998.5,P
1507969296.0,286046998.5,P
1507969315.8,286046998.6,Y
1507969335.6,286047000.1,P
1507969355.5,286047000.9,N
1507969375.3,286047001.5,N
1507969395.2,286047003.0,N
1507969415.9,286047004.0,N
1507969435.7,286047001.6,N
1507969455.6,286047003.2,N
1507969475.4,286047002.1,N
1507969495.2,286047000.7,N
1507969515.1,286047002.6,N
1507969516.0,286047002.6,N
1507969535.8,286047002.5,N
1507969555.7,286047001.5,N
1507969575.5,286047002.4,N
1507969595.3,286047004.0,N
1507969615.2,286047002.8,N
1507969635.0,286047002.3,N
1507969635.9,286047002.3,N
1507969655.8,286046998.4,N
1507969675.6,286047000.8,N
1507969695.4,286046998.6,N
1507969715.3,286047000.7,N
1507969735.1,286046998.2,N
1507969755.8,286047000.4,N
1507969775.7,286047000.2,N
1507969795.5,286047001.8,N
1507969815.4,286047003.5,N
1507969835.2,286047004.1,N
1507969855.0,286047004.4,N
1507969855.9,286047004.4,N
1507969875.8,286047002.9,N
1507969895.6,286047005.1,Y
1507969915.4,286047001.5,P
1507969935.3,286047000.2,N
1507969955.1,286047000.3,N
1507969975.9,286047000.8,N
1507969995.7,286047001.1,N
1507970015.5,286047000.4,N
1507970035.4,286047001.2,N
1507970055.2,286046999.0,N
1507970075.0,286046999.9,N
1507970075.9,286046999.9,N
1507970095.8,286047002.2,N
1507970115.6,286047002.2,N
1507970135.5,286047002.5,N
1507970155.3,286047000.0,N
1507970175.1,286047002.8,N
1507970195.9,286047002.7,N
1507970215.7,286047002.2,N
1507970235.5,286047000.7,N
1507970255.4,286046998.9,N
1507970275.2,286046999.1,N
1507970295.1,286046998.1,N
1507970296.0,286046998.1,N
1507970315.8,286046996.7,N
1507970335.6,286046999.1,N
1507970355.5,286046998.2,N
1507970375.3,286046999.7,N
1507970395.2,286047000.6,N
1507970415.9,286046998.6,N
1507970435.7,286046998.4,N
1507970455.6,286047001.1,N
1507970475.4,286046999.1,N
1507970495.2,286047000.7,N
1507970515.1,286047001.2,N
1507970516.0,286047001.2,N
1507970535.8,286047000.7,N
1507970555.7,286046999.2,N
1507970575.5,286046999.1,N
1507970595.3,286046996.8,N
1507970615.2,286046999.4,N
1507970635.0,286046996.5,N
1507970635.9,286046996.5,N
1507970655.7,286046998.2,N
1507970675.6,286047000.5,N
1507970695.4,286046999.3,N
1507970715.3,286046996.7,N
1507970735.1,286046999.6,N
1507970736.0,286046999.6,N
1507970755.8,286046997.2,N
1507970775.7,286046997.3,N
1507970795.5,286046999.4,N
1507970815.4,286046998.8,N
1507970835.2,286046998.4,N
1507970855.0,286047000.9,N
1507970855.9,286047000.9,N
1507970875.8,286046998.6,N
1507970895.6,286046999.2,N
1507970915.4,286046997.1,N
1507970935.3,286046999.6,N
1507970955.1,286047001.2,N
1507970975.9,286047000.9,N
1507970995.7,286046998.4,N
1507971015.5,286047001.1,N
1507971035.4,286046999.1,N
1507971055.2,286046996.8,N
1507971075.0,286046997.3,N
1507971075.9,286046997.3,N
1507971095.8,286046997.5,N
1507971115.6,286046997.5,N
1507971135.5,286046997.1,N
1507971155.3,286046995.4,Y
1507971175.1,286046996.9,P
1507971195.9,286046996.6,P
1507971215.7,286047001.1,N
1507971235.6,286047001.0,N
1507971255.4,286047001.2,N
1507971275.2,286046998.1,N
1507971295.1,286046998.5,N
1507971296.0,286046998.5,N
1507971315.8,286046999.3,N
1507971335.6,286047000.9,N
1507971355.5,286046998.3,N
1507971375.3,286046999.2,N
1507971395.2,286046998.1,N
1507971415.9,286046996.6,N
1507971435.7,286046997.2,N
1507971455.6,286046998.3,N
1507971475.4,286047000.3,N
1507971495.2,286047002.5,N
1507971515.1,286047002.3,N
1507971516.0,286047002.3,N
1507971535.8,286047002.2,N
1507971555.7,286047001.6,N
1507971575.5,286047000.4,N
1507971595.3,286047002.7,N
